Regional Weather Roundup
Issued by NWS Albany, NY

Home | Current Version | Previous Version | Graphics & Text | Print | Product List | Glossary On
Versions: 1 2 3 4 5 6 7 8 9 10 11 12 13 14 15 16 17 18 19 20 21 22 23 24 25 26 27
000
ASUS41 KALY 220510
RWRALY

NEW YORK STATE HOURLY WEATHER ROUNDUP
NATIONAL WEATHER SERVICE ALBANY NY
100 AM EDT TUE APR 22 2014

NOTE: "FAIR" INDICATES FEW OR NO CLOUDS BELOW 12,000 FEET WITH NO
SIGNIFICANT WEATHER AND/OR NO OBSTRUCTIONS TO VISIBILITY.

NYZ032-033-038>043-046>054-057>066-NYZ062>081-220600-
EAST


CITY           SKY/WX    TMP DP  RH WIND       PRES   REMARKS
ALBANY         CLOUDY    60  25  26 S13       29.78F
GLENS FALLS    CLOUDY    58  30  34 S6        29.77F
POUGHKEEPSIE   PTCLDY    52  39  61 SE6       29.83F
NEWBURGH       CLEAR     52  39  62 CALM      29.84F
MONTGOMERY     PTCLDY    47  38  71 CALM      29.82F
WHITE PLAINS   CLEAR     45  39  79 CALM      29.86F
ISLIP          CLEAR     48  42  80 SW6       29.87F
NEW YORK CITY  MOCLDY    51  40  65 S6        29.87F
CENTRAL PARK   CLEAR     53  41  63 CALM      29.89F
$$

NYZ005>009-017-018-044>046-055-056-220600-
CENTRAL


CITY           SKY/WX    TMP DP  RH WIND       PRES   REMARKS
FULTON         CLOUDY    56  38  50 S5        29.71F
SYRACUSE       CLOUDY    63  35  35 SE3       29.71F
ROME           CLOUDY    53  40  61 SE3       29.75F
ELMIRA         CLOUDY    56  40  55 CALM      29.76F
BINGHAMTON     CLOUDY    58  25  28 S7        29.78F
MONTICELLO     MOCLDY    46  28  49 CALM      29.85F
$$

NYZ026>034-041>043-220600-
NORTH


CITY           SKY/WX    TMP DP  RH WIND       PRES   REMARKS
WATERTOWN      CLOUDY    54  39  57 CALM      29.68F
FORT DRUM      NOT AVBL
MASSENA        CLOUDY    50  47  89 NE6       29.72F
SARANAC LAKE   CLOUDY    45  41  86 SE5       29.73F
PLATTSBURGH    LGT RAIN  50  42  74 CALM      29.74F
$$

NYZ001>004-010>016-019>021-220600-
WEST


CITY           SKY/WX    TMP DP  RH WIND       PRES   REMARKS
NIAGARA FALLS  CLOUDY    56  35  45 SW5       29.68F
BUFFALO        CLOUDY    61  37  41 S7        29.69F
DUNKIRK        CLOUDY    64  35  34 S12G23    29.71F
JAMESTOWN      CLOUDY    57  34  41 S7        29.77F
WELLSVILLE     MOCLDY    59  31  34 S5        29.79F
ROCHESTER      CLOUDY    59  40  49 SW5       29.70F
PENN YAN       MOCLDY    55  41  59 S3        29.74F
$$

             KEY
       WCI = WIND CHILL INDEX
       VSB = VISIBILITY
       HX  = HEAT INDEX
$$



USA.gov is the U.S. government's official web portal to all federal, state and local government web resources and services.